Year,Month,Day,Hour,Minute,Value (Times are PST for temperature in C)
2016,11,11,00,00,11.40
2016,11,11,00,01,11.40
2016,11,11,00,02,11.40
2016,11,11,00,03,11.60
2016,11,11,00,04,11.60
2016,11,11,00,05,11.50
2016,11,11,00,06,11.50
2016,11,11,00,07,11.50
2016,11,11,00,08,11.40
2016,11,11,00,09,11.50
2016,11,11,00,10,11.40
2016,11,11,00,11,11.50
2016,11,11,00,12,11.50
2016,11,11,00,13,11.50
2016,11,11,00,14,11.50
2016,11,11,00,15,11.50
2016,11,11,00,16,11.50
2016,11,11,00,17,11.50
2016,11,11,00,18,11.50
2016,11,11,00,19,11.50
2016,11,11,00,20,11.50
2016,11,11,00,21,11.50
2016,11,11,00,22,11.30
2016,11,11,00,23,11.30
2016,11,11,00,24,11.30
2016,11,11,00,25,11.30
2016,11,11,00,26,11.30
2016,11,11,00,27,11.30
2016,11,11,00,28,11.20
2016,11,11,00,29,11.20
2016,11,11,00,30,11.20
2016,11,11,00,31,11.20
2016,11,11,00,32,11.20
2016,11,11,00,33,11.20
2016,11,11,00,34,11.20
2016,11,11,00,35,11.20
2016,11,11,00,36,11.20
2016,11,11,00,37,11.20
2016,11,11,00,38,11.20
2016,11,11,00,39,11.20
2016,11,11,00,40,11.20
2016,11,11,00,41,11.20
2016,11,11,00,42,11.20
2016,11,11,00,43,11.20
2016,11,11,00,44,11.20
2016,11,11,00,45,11.20
2016,11,11,00,46,11.20
2016,11,11,00,47,11.20
2016,11,11,00,48,11.20
2016,11,11,00,49,11.20
2016,11,11,00,50,11.20
2016,11,11,00,51,11.20
2016,11,11,00,52,11.20
2016,11,11,00,53,11.20
2016,11,11,00,54,11.20
2016,11,11,00,55,11.20
2016,11,11,00,56,11.20
2016,11,11,00,57,11.20
2016,11,11,00,58,11.20
2016,11,11,00,59,11.20
2016,11,11,01,00,11.20
2016,11,11,01,01,11.20
2016,11,11,01,02,11.20
2016,11,11,01,03,11.20
2016,11,11,01,04,11.20
2016,11,11,01,05,11.20
2016,11,11,01,06,11.20
2016,11,11,01,07,11.20
2016,11,11,01,08,11.20
2016,11,11,01,09,11.20
2016,11,11,01,10,11.20
2016,11,11,01,11,11.10
2016,11,11,01,12,11.10
2016,11,11,01,13,11.10
2016,11,11,01,14,11.10
2016,11,11,01,15,11.10
2016,11,11,01,16,11.10
2016,11,11,01,17,11.10
2016,11,11,01,18,11.10
2016,11,11,01,19,11.20
2016,11,11,01,20,11.20
2016,11,11,01,21,11.20
2016,11,11,01,22,11.20
2016,11,11,01,23,11.20
2016,11,11,01,24,11.20
2016,11,11,01,25,11.20
2016,11,11,01,26,11.20
2016,11,11,01,27,11.20
2016,11,11,01,28,11.20
2016,11,11,01,29,11.20
2016,11,11,01,30,11.20
2016,11,11,01,31,11.30
2016,11,11,01,32,11.30
2016,11,11,01,33,11.30
2016,11,11,01,34,11.30
2016,11,11,01,35,11.30
2016,11,11,01,36,11.30
2016,11,11,01,37,11.30
2016,11,11,01,38,11.30
2016,11,11,01,39,11.30
2016,11,11,01,40,11.30
2016,11,11,01,41,11.30
2016,11,11,01,42,11.30
2016,11,11,01,43,11.30
2016,11,11,01,44,11.30
2016,11,11,01,45,11.30
2016,11,11,01,46,11.30
2016,11,11,01,47,11.30
2016,11,11,01,48,11.30
2016,11,11,01,49,11.30
2016,11,11,01,50,11.30
2016,11,11,01,51,11.30
2016,11,11,01,52,11.30
2016,11,11,01,53,11.30
2016,11,11,01,54,11.40
2016,11,11,01,55,11.40
2016,11,11,01,56,11.40
2016,11,11,01,57,11.40
2016,11,11,01,58,11.50
2016,11,11,01,59,11.50
2016,11,11,02,00,11.50
2016,11,11,02,01,11.50
2016,11,11,02,02,11.50
2016,11,11,02,03,11.60
2016,11,11,02,04,11.60
2016,11,11,02,05,11.50
2016,11,11,02,06,11.50
2016,11,11,02,07,11.50
2016,11,11,02,08,11.50
2016,11,11,02,09,11.40
2016,11,11,02,10,11.40
2016,11,11,02,11,11.40
2016,11,11,02,12,11.40
2016,11,11,02,13,11.40
2016,11,11,02,14,11.40
2016,11,11,02,15,11.30
2016,11,11,02,16,11.30
2016,11,11,02,17,11.30
2016,11,11,02,18,11.30
2016,11,11,02,19,11.30
2016,11,11,02,20,11.30
2016,11,11,02,21,11.30
2016,11,11,02,22,11.30
2016,11,11,02,23,11.30
2016,11,11,02,24,11.30
2016,11,11,02,25,11.30
2016,11,11,02,26,11.20
2016,11,11,02,27,11.20
2016,11,11,02,28,11.20
2016,11,11,02,29,11.20
2016,11,11,02,30,11.20
2016,11,11,02,31,11.20
2016,11,11,02,32,11.20
2016,11,11,02,33,11.20
2016,11,11,02,34,11.20
2016,11,11,02,35,11.30
2016,11,11,02,36,11.30
2016,11,11,02,37,11.30
2016,11,11,02,38,11.30
2016,11,11,02,39,11.30
2016,11,11,02,40,11.30
2016,11,11,02,41,11.30
2016,11,11,02,42,11.30
2016,11,11,02,43,11.30
2016,11,11,02,44,11.30
2016,11,11,02,45,11.30
2016,11,11,02,46,11.30
2016,11,11,02,47,11.30
2016,11,11,02,48,11.30
2016,11,11,02,49,11.20
2016,11,11,02,50,11.20
2016,11,11,02,51,11.20
2016,11,11,02,52,11.20
2016,11,11,02,53,11.20
2016,11,11,02,54,11.30
2016,11,11,02,55,11.30
2016,11,11,02,56,11.30
2016,11,11,02,57,11.30
2016,11,11,02,58,11.30
2016,11,11,02,59,11.30
2016,11,11,03,00,11.30
2016,11,11,03,01,11.40
2016,11,11,03,02,11.40
2016,11,11,03,03,11.40
2016,11,11,03,04,11.40
2016,11,11,03,05,11.40
2016,11,11,03,06,11.40
2016,11,11,03,07,11.40
2016,11,11,03,08,11.40
2016,11,11,03,09,11.40
2016,11,11,03,10,11.30
2016,11,11,03,11,11.30
2016,11,11,03,12,11.30
2016,11,11,03,13,11.30
2016,11,11,03,14,11.30
2016,11,11,03,15,11.30
2016,11,11,03,16,11.30
2016,11,11,03,17,11.30
2016,11,11,03,18,11.30
2016,11,11,03,19,11.30
2016,11,11,03,20,11.30
2016,11,11,03,21,11.30
2016,11,11,03,22,11.30
2016,11,11,03,23,11.40
2016,11,11,03,24,11.40
2016,11,11,03,25,11.40
2016,11,11,03,26,11.40
2016,11,11,03,27,11.40
2016,11,11,03,28,11.40
2016,11,11,03,29,11.40
2016,11,11,03,30,11.40
2016,11,11,03,31,11.40
2016,11,11,03,32,11.40
2016,11,11,03,33,11.40
2016,11,11,03,34,11.40
2016,11,11,03,35,11.30
2016,11,11,03,36,11.30
2016,11,11,03,37,11.30
2016,11,11,03,38,11.30
2016,11,11,03,39,11.30
2016,11,11,03,40,11.30
2016,11,11,03,41,11.30
2016,11,11,03,42,11.30
2016,11,11,03,43,11.30
2016,11,11,03,44,11.30
2016,11,11,03,45,11.30
2016,11,11,03,46,11.30
2016,11,11,03,47,11.30
2016,11,11,03,48,11.30
2016,11,11,03,49,11.30
2016,11,11,03,50,11.30
2016,11,11,03,51,11.40
2016,11,11,03,52,11.40
2016,11,11,03,53,11.40
2016,11,11,03,54,11.40
2016,11,11,03,55,11.40
2016,11,11,03,56,11.50
2016,11,11,03,57,11.40
2016,11,11,03,58,11.40
2016,11,11,03,59,11.50
2016,11,11,04,00,11.50
2016,11,11,04,01,11.50
2016,11,11,04,02,11.50
2016,11,11,04,03,11.50
2016,11,11,04,04,11.50
2016,11,11,04,05,11.40
2016,11,11,04,06,11.40
2016,11,11,04,07,11.40
2016,11,11,04,08,11.40
2016,11,11,04,09,11.40
2016,11,11,04,10,11.40
2016,11,11,04,11,11.40
2016,11,11,04,12,11.40
2016,11,11,04,13,11.40
2016,11,11,04,14,11.40
2016,11,11,04,15,11.40
2016,11,11,04,16,11.40
2016,11,11,04,17,11.30
2016,11,11,04,18,11.30
2016,11,11,04,19,11.30
2016,11,11,04,20,11.30
2016,11,11,04,21,11.30
2016,11,11,04,22,11.30
2016,11,11,04,23,11.30
2016,11,11,04,24,11.40
2016,11,11,04,25,11.40
2016,11,11,04,26,11.40
2016,11,11,04,27,11.40
2016,11,11,04,28,11.40
2016,11,11,04,29,11.40
2016,11,11,04,30,11.40
2016,11,11,04,31,11.40
2016,11,11,04,32,11.30
2016,11,11,04,33,11.30
2016,11,11,04,34,11.30
2016,11,11,04,35,11.30
2016,11,11,04,36,11.30
2016,11,11,04,37,11.30
2016,11,11,04,38,11.30
2016,11,11,04,39,11.30
2016,11,11,04,40,11.30
2016,11,11,04,41,11.30
2016,11,11,04,42,11.30
2016,11,11,04,43,11.30
2016,11,11,04,44,11.20
2016,11,11,04,45,11.20
2016,11,11,04,46,11.20
2016,11,11,04,47,11.20
2016,11,11,04,48,11.20
2016,11,11,04,49,11.20
2016,11,11,04,50,11.20
2016,11,11,04,51,11.20
2016,11,11,04,52,11.20
2016,11,11,04,53,11.20
2016,11,11,09,24,11.40
2016,11,11,09,25,11.40
2016,11,11,09,26,11.40
2016,11,11,09,27,11.40
2016,11,11,09,28,11.40
2016,11,11,09,29,11.40
2016,11,11,09,30,11.50
2016,11,11,09,31,11.50
2016,11,11,09,32,11.50
2016,11,11,09,33,11.60
2016,11,11,09,34,11.60
2016,11,11,09,35,11.60
2016,11,11,09,36,11.70
2016,11,11,09,37,11.70
2016,11,11,09,38,11.70
2016,11,11,09,39,11.80
2016,11,11,09,40,11.80
2016,11,11,09,41,11.80
2016,11,11,09,42,11.80
2016,11,11,09,43,11.90
2016,11,11,09,44,11.90
2016,11,11,09,45,11.90
2016,11,11,09,46,11.90
2016,11,11,09,47,11.90
2016,11,11,09,48,11.90
2016,11,11,09,49,11.90
2016,11,11,09,50,11.90
2016,11,11,09,51,11.90
2016,11,11,09,52,11.90
2016,11,11,09,53,11.90
2016,11,11,09,54,12.00
2016,11,11,09,55,12.00
2016,11,11,09,56,12.00
2016,11,11,09,57,12.00
2016,11,11,09,58,12.00
2016,11,11,09,59,12.00
2016,11,11,10,00,12.00
2016,11,11,10,01,12.00
2016,11,11,10,02,12.00
2016,11,11,10,03,12.00
2016,11,11,10,04,12.00
2016,11,11,10,05,12.00
2016,11,11,10,06,12.00
2016,11,11,10,07,12.10
2016,11,11,10,08,12.10
2016,11,11,10,09,12.10
2016,11,11,10,10,12.10
2016,11,11,10,11,12.10
2016,11,11,10,12,12.10
2016,11,11,10,13,12.10
2016,11,11,10,14,12.20
2016,11,11,10,15,12.20
2016,11,11,10,16,12.20
2016,11,11,10,17,12.20
2016,11,11,10,18,12.20
2016,11,11,10,19,12.20
2016,11,11,10,20,12.20
2016,11,11,10,21,12.30
2016,11,11,10,22,12.30
2016,11,11,10,23,12.30
2016,11,11,10,24,12.30
2016,11,11,10,25,12.30
2016,11,11,10,26,12.40
2016,11,11,10,27,12.40
2016,11,11,10,28,12.40
2016,11,11,10,29,12.40
2016,11,11,10,30,12.40
2016,11,11,10,31,12.40
2016,11,11,10,32,12.40
2016,11,11,10,33,12.40
2016,11,11,10,34,12.40
2016,11,11,10,35,12.40
2016,11,11,10,36,12.40
2016,11,11,10,37,12.40
2016,11,11,10,38,12.40
2016,11,11,10,39,12.40
2016,11,11,10,40,12.40
2016,11,11,10,41,12.40
2016,11,11,10,42,12.40
2016,11,11,10,43,12.40
2016,11,11,10,44,12.40
2016,11,11,10,45,12.40
2016,11,11,10,46,12.40
2016,11,11,10,47,12.40
2016,11,11,10,48,12.40
2016,11,11,10,49,12.40
2016,11,11,10,50,12.50
2016,11,11,10,51,12.50
2016,11,11,10,52,12.50
2016,11,11,10,53,12.50
2016,11,11,10,54,12.50
2016,11,11,10,55,12.50
2016,11,11,10,56,12.50
2016,11,11,10,57,12.50
2016,11,11,10,58,12.50
2016,11,11,10,59,12.60
2016,11,11,11,00,12.50
2016,11,11,11,01,12.50
2016,11,11,11,02,12.50
2016,11,11,11,03,12.50
2016,11,11,11,04,12.50
2016,11,11,11,05,12.50
2016,11,11,11,06,12.50
2016,11,11,11,07,12.40
2016,11,11,11,08,12.30
2016,11,11,11,09,12.30
2016,11,11,11,10,12.20
2016,11,11,11,11,12.10
2016,11,11,11,12,12.10
2016,11,11,11,13,12.10
2016,11,11,11,14,12.00
2016,11,11,11,15,12.00
2016,11,11,11,16,12.00
2016,11,11,11,17,12.00
2016,11,11,11,18,11.90
2016,11,11,11,19,11.80
2016,11,11,11,20,11.70
2016,11,11,11,21,11.70
2016,11,11,11,22,11.60
2016,11,11,11,23,11.60
2016,11,11,11,24,11.60
2016,11,11,11,25,11.60
2016,11,11,11,26,11.60
2016,11,11,11,27,11.60
2016,11,11,11,28,11.60
2016,11,11,11,29,11.60
2016,11,11,11,30,11.70
2016,11,11,11,31,11.70
2016,11,11,11,32,11.70
2016,11,11,11,33,11.80
2016,11,11,11,34,11.80
2016,11,11,11,35,11.80
2016,11,11,11,36,11.90
2016,11,11,11,37,11.90
2016,11,11,11,38,11.90
2016,11,11,11,39,12.00
2016,11,11,11,40,12.10
2016,11,11,11,41,12.10
2016,11,11,11,42,12.10
2016,11,11,11,43,12.20
2016,11,11,11,44,12.20
2016,11,11,11,45,12.30
2016,11,11,11,46,12.30
2016,11,11,11,47,12.30
2016,11,11,11,48,12.40
2016,11,11,11,49,12.40
2016,11,11,11,50,12.40
2016,11,11,11,51,12.40
2016,11,11,11,52,12.40
2016,11,11,11,53,12.50
2016,11,11,11,54,12.50
2016,11,11,11,55,12.50
2016,11,11,11,56,12.60
2016,11,11,11,57,12.60
2016,11,11,11,58,12.60
2016,11,11,11,59,12.60
2016,11,11,12,00,12.60
2016,11,11,12,01,12.60
2016,11,11,12,02,12.60
2016,11,11,12,03,12.60
2016,11,11,12,04,12.50
2016,11,11,12,05,12.50
2016,11,11,12,06,12.40
2016,11,11,12,07,12.40
2016,11,11,12,08,12.40
2016,11,11,12,09,12.40
2016,11,11,12,10,12.40
2016,11,11,12,11,12.30
2016,11,11,12,12,12.30
2016,11,11,12,13,12.30
2016,11,11,12,14,12.30
2016,11,11,12,15,12.30
2016,11,11,12,16,12.30
2016,11,11,12,17,12.40
2016,11,11,12,18,12.40
2016,11,11,12,19,12.40
2016,11,11,12,20,12.50
2016,11,11,12,21,12.50
2016,11,11,12,22,12.50
2016,11,11,12,23,12.60
2016,11,11,12,24,12.60
2016,11,11,12,25,12.60
2016,11,11,12,26,12.50
2016,11,11,12,27,12.50
2016,11,11,12,28,12.50
2016,11,11,12,29,12.50
2016,11,11,12,30,12.50
2016,11,11,12,31,12.50
2016,11,11,12,32,12.50
2016,11,11,12,33,12.60
2016,11,11,12,34,12.60
2016,11,11,12,35,12.60
2016,11,11,12,36,12.60
2016,11,11,12,37,12.60
2016,11,11,12,38,12.60
2016,11,11,12,39,12.60
2016,11,11,12,40,12.60
2016,11,11,12,41,12.60
2016,11,11,12,42,12.60
2016,11,11,12,43,12.70
2016,11,11,12,44,12.70
2016,11,11,12,45,12.70
2016,11,11,12,46,12.60
2016,11,11,12,47,12.60
2016,11,11,12,48,12.60
2016,11,11,12,49,12.60
2016,11,11,12,50,12.60
2016,11,11,12,51,12.60
2016,11,11,12,52,12.60
2016,11,11,12,53,12.60
2016,11,11,12,54,12.60
2016,11,11,12,55,12.60
2016,11,11,12,56,12.60
2016,11,11,12,57,12.60
2016,11,11,12,58,12.60
2016,11,11,12,59,12.60
2016,11,11,13,00,12.70
2016,11,11,13,01,12.70
2016,11,11,13,02,12.70
2016,11,11,13,03,12.70
2016,11,11,13,04,12.70
2016,11,11,13,05,12.70
2016,11,11,13,06,12.70
2016,11,11,13,07,12.70
2016,11,11,13,08,12.70
2016,11,11,13,09,12.70
2016,11,11,13,10,12.70
2016,11,11,13,11,12.70
2016,11,11,13,12,12.70
2016,11,11,13,13,12.80
2016,11,11,13,14,12.80
2016,11,11,13,15,12.80
2016,11,11,13,16,12.80
2016,11,11,13,17,12.80
2016,11,11,13,18,12.80
2016,11,11,13,19,12.80
2016,11,11,13,20,12.80
2016,11,11,13,21,12.80
2016,11,11,13,22,12.80
2016,11,11,13,23,12.80
2016,11,11,13,24,12.80
2016,11,11,13,25,12.80
2016,11,11,13,26,12.70
2016,11,11,13,27,12.70
2016,11,11,13,28,12.70
2016,11,11,13,29,12.70
2016,11,11,13,30,12.70
2016,11,11,13,31,12.70
2016,11,11,13,32,12.70
2016,11,11,13,33,12.70
2016,11,11,13,34,12.80
2016,11,11,13,35,12.80
2016,11,11,13,36,12.80
2016,11,11,13,37,12.80
2016,11,11,13,38,12.80
2016,11,11,13,39,12.80
2016,11,11,13,40,12.80
2016,11,11,13,41,12.80
2016,11,11,13,42,12.70
2016,11,11,13,43,12.70
2016,11,11,13,44,12.70
2016,11,11,13,45,12.70
2016,11,11,13,46,12.70
2016,11,11,13,47,12.70
2016,11,11,13,48,12.70
2016,11,11,13,49,12.70
2016,11,11,13,50,12.70
2016,11,11,13,51,12.70
2016,11,11,13,52,12.70
2016,11,11,13,53,12.70
2016,11,11,13,54,12.70
2016,11,11,13,55,12.70
2016,11,11,13,56,12.70
2016,11,11,13,57,12.70
2016,11,11,13,58,12.70
2016,11,11,13,59,12.70
2016,11,11,14,00,12.70
2016,11,11,14,01,12.70
2016,11,11,14,02,12.70
2016,11,11,14,03,12.70
2016,11,11,14,04,12.70
2016,11,11,14,05,12.70
2016,11,11,14,06,12.70
2016,11,11,14,07,12.70
2016,11,11,14,08,12.70
2016,11,11,14,09,12.70
2016,11,11,14,10,12.70
2016,11,11,14,11,12.70
2016,11,11,14,12,12.70
2016,11,11,14,13,12.70
2016,11,11,14,14,12.70
2016,11,11,14,15,12.70
2016,11,11,14,16,12.80
2016,11,11,14,17,12.80
2016,11,11,14,18,12.80
2016,11,11,14,19,12.80
2016,11,11,14,20,12.80
2016,11,11,14,21,12.80
2016,11,11,14,22,12.90
2016,11,11,14,23,12.90
2016,11,11,14,24,12.90
2016,11,11,14,25,12.90
2016,11,11,14,26,12.90
2016,11,11,14,27,12.90
2016,11,11,14,28,12.90
2016,11,11,14,29,12.90
2016,11,11,14,30,12.90
2016,11,11,14,31,12.90
2016,11,11,14,32,13.00
2016,11,11,14,33,13.00
2016,11,11,14,34,13.00
2016,11,11,14,35,13.00
2016,11,11,14,36,12.90
2016,11,11,14,37,12.90
2016,11,11,14,38,12.90
2016,11,11,14,39,12.90
2016,11,11,14,40,12.90
2016,11,11,14,41,12.90
2016,11,11,14,42,12.90
2016,11,11,14,43,12.90
2016,11,11,14,44,12.90
2016,11,11,14,45,12.90
2016,11,11,14,46,12.90
2016,11,11,14,47,12.90
2016,11,11,14,48,12.90
2016,11,11,14,49,12.90
2016,11,11,14,50,12.90
2016,11,11,14,51,12.90
2016,11,11,14,52,12.90
2016,11,11,14,53,12.90
2016,11,11,14,54,12.90
2016,11,11,14,55,12.90
2016,11,11,14,56,12.80
2016,11,11,14,57,12.80
2016,11,11,14,58,12.80
2016,11,11,14,59,12.80
2016,11,11,15,00,12.80
2016,11,11,15,01,12.80
2016,11,11,15,02,12.80
2016,11,11,15,03,12.80
2016,11,11,15,04,12.80
2016,11,11,15,05,12.80
2016,11,11,15,06,12.70
2016,11,11,15,07,12.70
2016,11,11,15,08,12.70
2016,11,11,15,09,12.70
2016,11,11,15,10,12.80
2016,11,11,15,11,12.80
2016,11,11,15,12,12.70
2016,11,11,15,13,12.70
2016,11,11,15,14,12.70
2016,11,11,15,15,12.70
2016,11,11,15,16,12.70
2016,11,11,15,17,12.70
2016,11,11,15,18,12.70
2016,11,11,15,19,12.70
2016,11,11,15,20,12.70
2016,11,11,15,21,12.70
2016,11,11,15,22,12.70
2016,11,11,15,23,12.70
2016,11,11,15,24,12.60
2016,11,11,15,25,12.60
2016,11,11,15,26,12.60
2016,11,11,15,27,12.60
2016,11,11,15,28,12.60
2016,11,11,15,29,12.60
2016,11,11,15,30,12.60
2016,11,11,15,31,12.60
2016,11,11,15,32,12.60
2016,11,11,15,33,12.60
2016,11,11,15,34,12.60
2016,11,11,15,35,12.60
2016,11,11,15,36,12.60
2016,11,11,15,37,12.60
2016,11,11,15,38,12.60
2016,11,11,15,39,12.60
2016,11,11,15,40,12.60
2016,11,11,15,41,12.60
2016,11,11,15,42,12.60
2016,11,11,15,43,12.50
2016,11,11,15,44,12.50
2016,11,11,15,45,12.50
2016,11,11,15,46,12.50
2016,11,11,15,47,12.50
2016,11,11,15,48,12.50
2016,11,11,15,49,12.50
2016,11,11,15,50,12.40
2016,11,11,15,51,12.40
2016,11,11,15,52,12.40
2016,11,11,15,53,12.40
2016,11,11,15,54,12.40
2016,11,11,15,55,12.40
2016,11,11,15,56,12.40
2016,11,11,15,57,12.40
2016,11,11,15,58,12.40
2016,11,11,15,59,12.40
2016,11,11,16,00,12.30
2016,11,11,16,01,12.30
2016,11,11,16,02,12.30
2016,11,11,16,03,12.30
2016,11,11,16,04,12.30
2016,11,11,16,05,12.30
2016,11,11,16,06,12.30
2016,11,11,16,07,12.30
2016,11,11,16,08,12.30
2016,11,11,16,09,12.30
2016,11,11,16,10,12.30
2016,11,11,16,11,12.30
2016,11,11,16,12,12.30
2016,11,11,16,13,12.30
2016,11,11,16,14,12.30
2016,11,11,16,15,12.30
2016,11,11,16,16,12.20
2016,11,11,16,17,12.20
2016,11,11,16,18,12.20
2016,11,11,16,19,12.20
2016,11,11,16,20,12.20
2016,11,11,16,21,12.20
2016,11,11,16,22,12.20
2016,11,11,16,23,12.20
2016,11,11,16,24,12.20
2016,11,11,16,25,12.20
2016,11,11,16,26,12.10
2016,11,11,16,27,12.10
2016,11,11,16,28,12.10
2016,11,11,16,29,12.10
2016,11,11,16,30,12.10
2016,11,11,16,31,12.10
2016,11,11,16,32,12.10
2016,11,11,16,33,12.10
2016,11,11,16,34,12.10
2016,11,11,16,35,12.10
2016,11,11,16,36,12.10
2016,11,11,16,37,12.10
2016,11,11,16,38,12.00
2016,11,11,16,39,12.00
2016,11,11,16,40,12.00
2016,11,11,16,41,12.00
2016,11,11,16,42,12.00
2016,11,11,16,43,12.00
2016,11,11,16,44,12.00
2016,11,11,16,45,12.00
2016,11,11,16,46,12.00
2016,11,11,16,47,12.00
2016,11,11,16,48,11.90
2016,11,11,16,49,11.90
2016,11,11,16,50,11.90
2016,11,11,16,51,11.90
2016,11,11,16,52,11.90
2016,11,11,16,53,11.90
2016,11,11,16,54,11.90
2016,11,11,16,55,11.90
2016,11,11,16,56,11.90
2016,11,11,16,57,11.90
2016,11,11,16,58,11.90
2016,11,11,16,59,11.80
2016,11,11,17,00,11.80
2016,11,11,17,01,11.80
2016,11,11,17,02,11.80
2016,11,11,17,03,11.80
2016,11,11,17,04,11.80
2016,11,11,17,05,11.80
2016,11,11,17,06,11.80
2016,11,11,17,07,11.80
2016,11,11,17,08,11.80
2016,11,11,17,09,11.80
2016,11,11,17,10,11.80
2016,11,11,17,11,11.80
2016,11,11,17,12,11.70
2016,11,11,17,13,11.70
2016,11,11,17,14,11.70
2016,11,11,17,15,11.70
2016,11,11,17,16,11.70
2016,11,11,17,17,11.70
2016,11,11,17,18,11.70
2016,11,11,17,19,11.80
2016,11,11,17,20,11.70
2016,11,11,17,21,11.70
2016,11,11,17,22,11.70
2016,11,11,17,23,11.70
2016,11,11,17,24,11.70
2016,11,11,17,25,11.70
2016,11,11,17,26,11.70
2016,11,11,17,27,11.70
2016,11,11,17,28,11.70
2016,11,11,17,29,11.70
2016,11,11,17,30,11.70
2016,11,11,17,31,11.70
2016,11,11,17,32,11.70
2016,11,11,17,33,11.70
2016,11,11,17,34,11.70
2016,11,11,17,35,11.70
2016,11,11,17,36,11.70
2016,11,11,17,37,11.60
2016,11,11,17,38,11.60
2016,11,11,17,39,11.60
2016,11,11,17,40,11.60
2016,11,11,17,41,11.60
2016,11,11,17,42,11.60
2016,11,11,17,43,11.60
2016,11,11,17,44,11.60
2016,11,11,17,45,11.70
2016,11,11,17,46,11.70
2016,11,11,17,47,11.70
2016,11,11,17,48,11.70
2016,11,11,17,49,11.70
2016,11,11,17,50,11.70
2016,11,11,17,51,11.70
2016,11,11,17,52,11.70
2016,11,11,17,53,11.70
2016,11,11,17,54,11.70
2016,11,11,17,55,11.70
2016,11,11,17,56,11.70
2016,11,11,17,57,11.70
2016,11,11,17,58,11.70
2016,11,11,17,59,11.70
2016,11,11,18,00,11.60
2016,11,11,18,01,11.60
2016,11,11,18,02,11.60
2016,11,11,18,03,11.60
2016,11,11,18,04,11.60
2016,11,11,18,05,11.60
2016,11,11,18,06,11.60
2016,11,11,18,07,11.60
2016,11,11,18,08,11.60
2016,11,11,18,09,11.60
2016,11,11,18,10,11.60
2016,11,11,18,11,11.60
2016,11,11,18,12,11.60
2016,11,11,18,13,11.60
2016,11,11,18,14,11.60
2016,11,11,18,15,11.60
2016,11,11,18,16,11.60
2016,11,11,18,17,11.60
2016,11,11,18,18,11.60
2016,11,11,18,19,11.60
2016,11,11,18,20,11.60
2016,11,11,18,21,11.60
2016,11,11,18,22,11.50
2016,11,11,18,23,11.50
2016,11,11,18,24,11.50
2016,11,11,18,25,11.50
2016,11,11,18,26,11.50
2016,11,11,18,27,11.50
2016,11,11,18,28,11.50
2016,11,11,18,29,11.50
2016,11,11,18,30,11.50
2016,11,11,18,31,11.50
2016,11,11,18,32,11.50
2016,11,11,18,33,11.50
2016,11,11,18,34,11.50
2016,11,11,18,35,11.50
2016,11,11,18,36,11.50
2016,11,11,18,37,11.50
2016,11,11,18,38,11.50
2016,11,11,18,39,11.50
2016,11,11,18,40,11.50
2016,11,11,18,41,11.50
2016,11,11,18,42,11.50
2016,11,11,18,43,11.50
2016,11,11,18,44,11.40
2016,11,11,18,45,11.40
2016,11,11,18,46,11.40
2016,11,11,18,47,11.40
2016,11,11,18,48,11.40
2016,11,11,18,49,11.40
2016,11,11,18,50,11.40
2016,11,11,18,51,11.40
2016,11,11,18,52,11.40
2016,11,11,18,53,11.40
2016,11,11,18,54,11.40
2016,11,11,18,55,11.40
2016,11,11,18,56,11.40
2016,11,11,18,57,11.40
2016,11,11,18,58,11.40
2016,11,11,18,59,11.40
2016,11,11,19,00,11.40
2016,11,11,19,01,11.40
2016,11,11,19,02,11.40
2016,11,11,19,03,11.40
2016,11,11,19,04,11.40
2016,11,11,19,05,11.40
2016,11,11,19,06,11.40
2016,11,11,19,07,11.40
2016,11,11,19,08,11.40
2016,11,11,19,09,11.40
2016,11,11,19,10,11.40
2016,11,11,19,11,11.40
2016,11,11,19,12,11.40
2016,11,11,19,13,11.40
2016,11,11,19,14,11.40
2016,11,11,19,15,11.30
2016,11,11,19,16,11.30
2016,11,11,19,17,11.30
2016,11,11,19,18,11.30
2016,11,11,19,19,11.30
2016,11,11,19,20,11.30
2016,11,11,19,21,11.30
2016,11,11,19,22,11.30
2016,11,11,19,23,11.40
2016,11,11,19,24,11.40
2016,11,11,19,25,11.40
2016,11,11,19,26,11.40
2016,11,11,19,27,11.40
2016,11,11,19,28,11.40
2016,11,11,19,29,11.40
2016,11,11,19,30,11.40
2016,11,11,19,31,11.40
2016,11,11,19,32,11.40
2016,11,11,19,33,11.40
2016,11,11,19,34,11.40
2016,11,11,19,35,11.40
2016,11,11,19,36,11.40
2016,11,11,19,37,11.40
2016,11,11,19,38,11.40
2016,11,11,19,39,11.40
2016,11,11,19,40,11.40
2016,11,11,19,41,11.40
2016,11,11,19,42,11.40
2016,11,11,19,43,11.40
2016,11,11,19,44,11.40
2016,11,11,19,45,11.40
2016,11,11,19,46,11.40
2016,11,11,19,47,11.40
2016,11,11,19,48,11.40
2016,11,11,19,49,11.40
2016,11,11,19,50,11.40
2016,11,11,19,51,11.40
2016,11,11,19,52,11.40
2016,11,11,19,53,11.40
2016,11,11,19,54,11.40
2016,11,11,19,55,11.40
2016,11,11,19,56,11.40
2016,11,11,19,57,11.40
2016,11,11,19,58,11.40
2016,11,11,19,59,11.40
2016,11,11,20,00,11.40
2016,11,11,20,01,11.40
2016,11,11,20,02,11.40
2016,11,11,20,03,11.40
2016,11,11,20,04,11.40
2016,11,11,20,05,11.40
2016,11,11,20,06,11.40
2016,11,11,20,07,11.40
2016,11,11,20,08,11.40
2016,11,11,20,09,11.40
2016,11,11,20,10,11.40
2016,11,11,20,11,11.40
2016,11,11,20,12,11.40
2016,11,11,20,13,11.40
2016,11,11,20,14,11.40
2016,11,11,20,15,11.40
2016,11,11,20,16,11.40
2016,11,11,20,17,11.40
2016,11,11,20,18,11.40
2016,11,11,20,19,11.40
2016,11,11,20,20,11.40
2016,11,11,20,21,11.40
2016,11,11,20,22,11.40
2016,11,11,20,23,11.40
2016,11,11,20,24,11.40
2016,11,11,20,25,11.40
2016,11,11,20,26,11.40
2016,11,11,20,27,11.40
2016,11,11,20,28,11.40
2016,11,11,20,29,11.40
2016,11,11,20,30,11.30
2016,11,11,20,31,11.30
2016,11,11,20,32,11.30
2016,11,11,20,33,11.30
2016,11,11,20,34,11.30
2016,11,11,20,35,11.30
2016,11,11,20,36,11.30
2016,11,11,20,37,11.30
2016,11,11,20,38,11.30
2016,11,11,20,39,11.30
2016,11,11,20,40,11.30
2016,11,11,20,41,11.30
2016,11,11,20,42,11.30
2016,11,11,20,43,11.30
2016,11,11,20,44,11.30
2016,11,11,20,45,11.30
2016,11,11,20,46,11.30
2016,11,11,20,47,11.30
2016,11,11,20,48,11.30
2016,11,11,20,49,11.30
2016,11,11,20,50,11.30
2016,11,11,20,51,11.30
2016,11,11,20,52,11.30
2016,11,11,20,53,11.30
2016,11,11,20,54,11.30
2016,11,11,20,55,11.30
2016,11,11,20,56,11.20
2016,11,11,20,57,11.20
2016,11,11,20,58,11.20
2016,11,11,20,59,11.20
2016,11,11,21,00,11.20
2016,11,11,21,01,11.20
2016,11,11,21,02,11.20
2016,11,11,21,03,11.20
2016,11,11,21,04,11.20
2016,11,11,21,05,11.20
2016,11,11,21,06,11.20
2016,11,11,21,07,11.20
2016,11,11,21,08,11.20
2016,11,11,21,09,11.20
2016,11,11,21,10,11.20
2016,11,11,21,11,11.20
2016,11,11,21,12,11.20
2016,11,11,21,13,11.20
2016,11,11,21,14,11.20
2016,11,11,21,15,11.20
2016,11,11,21,16,11.20
2016,11,11,21,17,11.20
2016,11,11,21,18,11.20
2016,11,11,21,19,11.20
2016,11,11,21,20,11.20
2016,11,11,21,21,11.20
2016,11,11,21,22,11.20
2016,11,11,21,23,11.20
2016,11,11,21,24,11.20
2016,11,11,21,25,11.20
2016,11,11,21,26,11.20
2016,11,11,21,27,11.20
2016,11,11,21,28,11.20
2016,11,11,21,29,11.20
2016,11,11,21,30,11.20
2016,11,11,21,31,11.20
2016,11,11,21,32,11.20
2016,11,11,21,33,11.20
2016,11,11,21,34,11.20
2016,11,11,21,35,11.10
2016,11,11,21,36,11.10
2016,11,11,21,37,11.10
2016,11,11,21,38,11.10
2016,11,11,21,39,11.10
2016,11,11,21,40,11.10
2016,11,11,21,41,11.10
2016,11,11,21,42,11.10
2016,11,11,21,43,11.10
2016,11,11,21,44,11.10
2016,11,11,21,45,11.10
2016,11,11,21,46,11.10
2016,11,11,21,47,11.10
2016,11,11,21,48,11.10
2016,11,11,21,49,11.20